This is the latest recevied weather packets stored in our database for station/object K2BIG. If no packets are shown the sender has not sent any weather packets the latest 10 day(s).
| Time | Temp. | Humidity | Pressure | Rain* | Wind** | Luminosity | Snow |
|---|---|---|---|---|---|---|---|
| 1777650915 | 17.22° C | 51% | 1012.1 hPa | 0 mm | - | - | - |
| 1777650615 | 16.67° C | 47% | 1012.1 hPa | 0 mm | - | - | - |
| 1777650315 | 16.67° C | 48% | 1012.1 hPa | 0 mm | - | - | - |
| 1777650015 | 16.67° C | 52% | 1012.2 hPa | 0 mm | - | - | - |
| 1777649715 | 16.67° C | 53% | 1012.4 hPa | 0 mm | - | - | - |
| 1777649415 | 16.11° C | 48% | 1012.4 hPa | 0 mm | - | - | - |
| 1777649117 | 16.11° C | 49% | 1012.4 hPa | 0 mm | - | - | - |
| 1777648817 | 16.11° C | 45% | 1012.4 hPa | 0 mm | - | - | - |
| 1777648517 | 15.56° C | 51% | 1012.4 hPa | 0 mm | - | - | - |
| 1777648217 | 15° C | 50% | 1012.4 hPa | 0 mm | - | - | - |
| 1777647917 | 15° C | 46% | 1012.5 hPa | 0 mm | - | - | - |
| 1777647617 | 15° C | 49% | 1012.6 hPa | 0 mm | - | - | - |
| 1777647317 | 15° C | 50% | 1012.6 hPa | 0 mm | - | - | - |
| 1777647017 | 15° C | 51% | 1012.6 hPa | 0 mm | - | - | - |
| 1777646717 | 14.44° C | 51% | 1012.7 hPa | 0 mm | - | - | - |
| 1777646417 | 14.44° C | 48% | 1012.7 hPa | 0 mm | - | - | - |
| 1777646117 | 14.44° C | 52% | 1012.7 hPa | 0 mm | - | - | - |
| 1777645817 | 14.44° C | 48% | 1012.7 hPa | 0 mm | - | - | - |
| 1777645517 | 14.44° C | 51% | 1012.7 hPa | 0 mm | - | - | - |
| 1777645217 | 13.89° C | 53% | 1012.8 hPa | 0 mm | - | - | - |
| 1777644917 | 13.89° C | 49% | 1012.8 hPa | 0 mm | - | - | - |
| 1777644617 | 14.44° C | 52% | 1012.8 hPa | 0 mm | - | - | - |
| 1777644317 | 14.44° C | 54% | 1012.7 hPa | 0 mm | - | - | - |
| 1777644017 | 13.89° C | 55% | 1012.8 hPa | 0 mm | - | - | - |
| 1777643717 | 13.89° C | 56% | 1012.8 hPa | 0 mm | - | - | - |
* Rain latest hour (hover to see other rain measurements)
** Current wind speed in m/s (hover to see current wind gust speed)